Showing default

LUMELITE 4, 56309

Orbit data source: Space-Track

LUMELITE 4, 56309 is a payload satellite owned by NUS (SG) in LEO that was launched on Sat, 22 Apr 2023 UTC via a PSLV launch vehicle from the Sirharikota (SRI). Payload-class satellites include a variety of spacecraft equipped with specific instruments for various scientific and technological missions. These include communications satellites like Starlink; space stations such as the ISS; scientific satellites like the Hubble; Earth observation satellites from companies like Planet Labs, Umbra, and HawkEye 360; GPS; miniature CubeSats for education and research; and military/defense satellites.

Not visible in the next 10 days
Identifier
56309, 2023-057B
Orbit
LEO
Country
Flag of SGSG / SING
Related business
Manufacturer
NUS
Mission
Operational Amateur Technology
Bus & Motor
CUBESAT 12U, Unknown motor
Mass
16 kg wet, 16 kg dry
Launch date (UTC)
2023-04-22 (3 years ago)
Launch vehicle
PSLV
Launch site
Sirharikota (SRI)
Object type
Payload
Rocket body
Debris
Shape & HBR
Box + 2 Pan, 0.2 m
Radar Cross Section
0.200 m², Medium (>0.1 m² and < 1m²)

Expand to show TLE details & history
Last TLE update: 2 days ago

TLE from 2 days ago
0 LUMELITE 4
1 56309U 23057B   26171.18261154  .00009109  00000-0  34729-3 0  9992
2 56309   9.9927  37.7339 0004146 161.4141 198.6227 15.22061616174519
Epoch: 2026-06-20T04:22Z
TLE epoch observation values (Epoch: 2026-06-20T04:22:57.637Z)
Latitude
0.00001°
Longitude
63.59288°
Altitude
499.329 km
Speed
7.617 km/s
True Right ascension
02h 30m 56s
True Declination
0° 00' 00"
Sunlit
Object was in daylight at epoch
Visualization orbit readout
Latitude
Unknown
Longitude
Unknown
Altitude
Unknown
Speed
Unknown
Apparent Right ascension
Unknown
Apparent Declination
Unknown
Sunlit
N/A
Visualization observer readout
Local Sidereal Time
21:41:15
Azimuth
Unknown
Elevation
Unknown
Doppler factor
Unknown
Orbital elements
Apogee altitude
508.6 km
Perigee altitude
502.892 km
Semi-major axis
6,883.883 km
Eccentricity
0.00041
Inclination
9.9927°
RAAN
37.7339°
Arg. of periapsis
161.4141°
True anomaly
198.60754°
Mean anomaly
198.6227°
Eccentric anomaly
198.61512°
Mean motion
3.80008 °/min
Orbital period
94.73 mins
BSTAR
0.00034729
Loading maneuver chart data...
Computing Atmospheric mass density...
Loading historical data...
Loading historical data...
Loading historical data...
Loading historical data...
Loading historical data...
Loading historical data...
Loading historical data...
Other satellites on launch #57 in the year 2023 (2023-04-22 UTC)

Documentation

Showing up to 5 results
|